Vorticity
8 5 3 5 7 5 1 10 15 10 11 8 4 5 4 3 4 4 5 8 10 8 7 5 3 5 8 10 11 7 5 7 7 6 4 3 3 4 4 3 4 6 7 8 6 6 7 6 7 8 8 9 9 10 10 10 10 10 10 10 9 9 9 8 8 8 7 7 6 6 6 6 7 7 7 8 8 8 9 8 8 8 8 8 8 7 8 7
15 5 2 4 7 10 16 24 19 7 5 4 3 5 4 4 4 6 9 9 8 5 4 4 6 10 11 9 8 6 7 7 5 3 2 2 4 4 5 5 5 7 8 7 7 7 8 8 10 11 11 12 12 13 13 12 12 12 12 13 13 13 12 11 11 10 10 9 8 7 7 7 7 7 7 8 9 10 9 8 8 8 7 7 7 7 7 8
9 0 2 11 20 22 21 16 8 3 4 4 3 3 4 5 8 10 9 6 5 3 4 8 11 11 7 6 8 7 6 5 3 3 3 3 5 6 6 6 6 7 8 8 9 9 10 10 11 11 11 12 11 11 11 11 11 11 12 13 13 12 12 11 11 10 9 9 8 8 8 7 7 7 8 8 10 10 8 6 7 6 7 7 8 8 8 8
7 11 12 16 19 13 8 5 4 5 4 3 2 3 6 8 9 8 6 4 3 5 10 12 10 8 6 8 8 4 2 5 4 4 7 6 6 6 6 7 8 9 9 9 9 9 9 9 9 8 10 10 9 9 9 9 9 11 11 8 8 10 10 8 8 8 8 7 7 7 7 6 6 6 6 7 7 7 6 6 6 6 7 8 8 8 7 8
21 20 13 10 6 4 4 4 4 3 3 3 5 7 9 8 6 5 4 4 7 11 12 9 8 8 7 5 4 3 0 3 5 6 8 7 7 7 7 7 8 9 8 8 7 8 9 8 8 8 10 9 6 8 9 8 9 11 8 6 9 10 7 7 7 8 8 7 7 7 6 6 5 5 5 5 5 6 6 6 6 7 8 7 6 7 7 7
14 7 5 4 3 4 4 3 3 3 5 6 8 9 7 6 4 3 4 8 13 12 8 7 8 6 5 2 2 4 2 2 5 7 6 7 8 8 8 7 7 7 7 8 8 8 9 8 9 9 11 9 7 10 10 10 12 12 10 10 12 11 11 11 10 9 9 8 8 8 7 7 6 6 5 5 4 5 6 6 7 7 6 6 6 6 7 7
5 3 4 4 3 4 3 4 4 4 8 8 8 6 5 4 3 5 9 13 11 8 7 7 4 2 3 3 2 4 5 5 6 6 6 8 7 7 8 6 8 8 7 9 7 6 7 7 7 7 9 9 7 8 8 11 12 10 12 12 12 13 14 14 12 12 12 11 11 10 9 8 7 7 7 6 6 6 6 6 5 5 5 5 6 6 6 7
5 5 5 4 4 3 3 4 5 8 9 8 6 5 3 3 6 11 12 11 8 7 8 4 2 1 2 4 5 5 5 7 8 7 7 7 6 7 8 6 8 8 5 6 4 4 5 5 5 5 7 6 5 6 6 10 9 7 10 11 11 12 13 14 13 13 14 13 13 13 12 10 9 9 8 5 5 5 5 5 6 6 6 6 6 7 7 7
4 4 4 4 3 3 5 5 7 9 8 7 5 3 3 7 12 12 8 8 7 5 3 2 2 2 4 6 5 4 7 9 8 7 7 7 6 7 7 5 6 5 4 4 3 4 4 4 4 4 7 4 4 5 5 8 6 5 8 8 9 9 11 13 12 13 14 13 12 14 14 12 11 9 8 6 6 6 5 5 6 5 5 6 6 7 7 8
3 3 4 3 4 5 6 8 9 8 7 4 2 4 8 12 11 8 7 7 4 2 2 3 3 4 6 7 6 6 9 8 6 7 7 7 6 6 5 3 4 3 3 4 3 4 4 5 4 5 6 3 3 4 5 5 3 3 5 6 6 8 12 13 12 11 10 10 12 15 17 14 12 11 10 9 9 8 7 8 7 7 6 6 6 7 8 9
4 4 5 5 6 7 8 10 9 6 3 2 5 10 12 10 7 7 7 5 3 2 2 3 4 6 4 6 10 9 8 7 7 7 7 7 5 4 4 3 4 3 3 5 4 5 5 5 5 5 6 4 4 3 4 3 2 5 4 5 6 6 9 9 7 6 7 10 11 12 16 17 12 10 10 9 10 9 9 10 9 9 9 9 9 9 10 11
5 5 5 6 8 9 9 8 5 2 2 6 11 11 8 7 7 7 5 3 3 3 4 3 2 6 6 7 9 7 7 7 7 6 4 5 4 3 4 3 4 4 5 6 5 6 6 6 6 6 5 5 4 3 5 6 6 6 4 5 5 3 7 8 7 8 10 12 11 9 12 19 17 14 16 13 13 13 12 12 11 11 10 10 10 9 10 10
6 6 7 9 8 7 6 3 1 3 7 11 10 8 7 7 5 4 3 3 4 3 4 4 3 8 10 7 6 7 7 6 7 5 3 5 5 4 4 4 5 5 6 6 5 6 6 6 5 5 5 5 5 5 8 8 7 7 6 7 6 4 8 8 7 8 8 8 10 6 7 20 19 15 18 17 16 17 15 15 14 14 14 12 10 8 8 8
8 8 9 9 7 5 3 1 3 8 11 10 7 7 7 5 3 3 3 3 3 4 6 8 9 8 7 6 7 8 6 5 5 4 3 5 5 4 4 5 6 5 5 5 5 6 4 5 4 5 7 7 7 7 8 8 9 9 8 9 8 8 8 6 5 6 5 5 6 3 4 12 12 12 17 15 15 16 15 17 16 17 17 18 18 17 17 17
11 10 9 6 5 3 1 4 9 10 8 6 7 7 5 3 3 3 3 2 3 9 11 10 10 7 6 7 7 6 4 4 4 5 5 5 5 5 5 5 5 5 5 5 6 5 4 5 6 8 8 5 6 7 8 9 10 8 8 10 11 11 10 10 9 9 9 8 7 6 6 6 7 12 16 14 17 18 18 19 18 19 19 20 22 23 23 23
11 8 6 5 3 2 4 9 10 7 5 7 7 4 3 3 3 3 3 3 6 12 10 8 9 9 7 5 5 6 5 6 6 6 5 5 5 5 4 5 5 5 5 5 4 4 5 6 6 6 4 4 7 7 7 7 7 7 7 10 12 11 12 13 13 11 11 12 10 9 9 8 9 10 13 16 20 20 21 23 22 22 21 19 18 17 17 17
9 7 6 3 2 4 9 9 6 5 6 6 3 2 4 2 1 1 5 10 11 9 8 8 8 7 6 5 6 7 6 6 6 5 5 5 4 4 5 5 4 5 5 5 5 5 6 4 3 5 4 5 6 4 5 6 6 9 9 11 12 12 12 12 13 12 11 13 12 11 10 9 9 9 12 15 15 18 21 21 21 19 18 16 15 14 12 12
7 6 4 3 5 9 10 6 5 7 5 3 3 3 3 2 3 3 7 12 10 6 7 8 7 6 6 7 6 6 5 6 6 6 4 4 5 6 6 5 5 6 6 6 6 4 4 2 2 6 5 4 4 4 8 8 10 11 9 11 11 12 15 10 8 11 12 15 14 13 13 11 10 9 9 10 13 16 16 13 13 15 16 18 19 21 21 20
7 5 3 6 9 10 6 5 7 6 4 3 2 3 4 5 8 7 7 10 8 6 7 7 6 5 6 7 5 4 5 5 5 4 3 4 6 6 5 5 6 5 4 4 2 1 3 3 3 5 4 5 7 8 10 10 11 11 10 13 10 10 16 11 9 12 10 14 18 15 14 14 12 11 11 13 14 13 11 11 14 16 18 20 20 20 20 19
5 4 6 10 10 7 6 7 6 4 2 2 4 6 6 4 6 9 10 10 7 5 7 7 5 4 6 6 4 5 6 5 5 5 7 8 7 7 6 4 4 3 2 2 2 3 6 6 5 6 6 9 10 10 10 11 11 11 11 14 13 9 13 13 11 13 12 13 18 16 14 15 14 15 16 15 14 12 10 12 14 16 16 14 12 12 12 13
6 8 11 10 8 7 7 6 4 3 3 5 7 8 9 8 9 11 11 9 5 4 6 6 4 4 5 5 5 5 4 3 6 7 7 7 5 5 4 1 1 3 4 5 6 7 7 6 6 7 8 10 10 9 10 11 10 11 12 13 15 9 9 18 15 11 14 13 15 17 16 16 16 17 18 17 16 15 16 17 15 13 9 7 9 10 11 13
10 12 10 8 7 7 5 3 3 4 4 5 5 6 11 12 9 9 8 7 5 3 4 5 5 5 4 4 5 5 5 5 7 6 4 5 2 1 2 2 3 4 7 8 6 6 5 4 5 6 8 8 8 8 8 12 11 10 12 12 14 10 5 16 19 15 17 14 14 18 15 17 19 18 19 18 19 18 16 15 11 9 8 9 10 9 12 15
11 9 7 8 7 4 2 2 3 3 4 5 5 9 10 7 5 7 7 7 6 4 3 4 5 5 4 4 5 6 8 6 5 4 2 3 2 2 4 4 5 5 5 6 4 4 3 3 4 4 6 7 6 6 6 13 13 7 11 11 12 15 9 10 13 15 22 20 15 16 17 20 20 20 22 20 18 16 12 10 9 10 10 8 10 12 17 19
8 7 8 8 4 2 2 3 4 3 5 5 6 10 10 7 7 5 5 6 6 6 6 5 5 5 3 3 6 6 5 3 3 4 2 2 3 4 4 4 5 4 3 3 3 2 3 4 4 4 6 6 4 5 5 10 11 7 11 11 9 15 16 13 8 9 23 26 20 16 15 21 25 24 23 19 16 15 13 12 11 11 12 14 17 18 16 13
6 8 8 5 2 3 3 3 5 5 5 6 4 4 6 9 8 5 5 5 5 7 7 6 5 4 3 4 5 5 3 2 2 2 1 1 3 4 3 3 4 3 1 2 3 2 4 5 5 4 5 5 3 5 5 6 8 9 11 13 10 11 16 15 8 8 20 25 22 17 13 17 27 26 20 16 16 15 13 14 17 21 24 23 17 12 8 6
6 8 5 3 2 3 4 6 8 7 7 8 7 5 4 5 6 6 5 4 5 6 4 5 4 3 4 3 3 4 3 0 -2 -1 2 2 3 4 4 3 3 4 2 3 4 3 5 6 5 6 5 4 3 3 4 5 7 10 11 12 10 11 15 15 9 11 21 26 21 16 14 16 23 23 16 14 14 13 14 17 23 27 22 15 11 8 6 7
6 6 3 3 3 4 6 7 8 7 7 8 9 10 7 5 4 6 7 5 5 5 3 4 4 3 3 2 0 -1 -1 1 -0 0 3 4 4 4 4 4 4 6 4 3 5 5 6 7 6 7 6 3 3 2 3 7 9 9 10 10 9 11 18 14 7 12 23 27 21 19 19 15 21 22 11 12 17 13 13 19 25 23 16 11 10 10 7 6
5 4 3 4 5 6 7 7 8 8 7 5 6 7 8 7 6 5 7 5 2 3 4 3 2 2 2 1 0 -2 -3 4 5 2 5 5 5 5 4 5 6 7 4 2 5 7 7 6 6 7 6 4 4 4 5 9 9 7 7 9 8 10 19 12 3 13 27 26 19 23 25 15 17 20 12 16 18 8 12 25 26 19 15 13 8 7 7 5
4 4 6 6 7 6 7 8 9 8 7 7 6 4 6 7 6 5 5 4 2 2 4 4 2 1 0 -1 0 3 1 3 5 3 5 6 5 6 5 7 8 6 3 4 6 6 5 5 6 7 6 4 5 5 6 7 5 5 5 9 9 10 20 12 -1 11 28 28 20 20 24 16 12 15 17 19 12 8 23 31 24 15 12 9 4 2 4 4
5 7 7 7 7 7 8 9 8 8 8 9 7 6 5 4 4 4 2 2 2 1 2 2 1 -1 0 1 1 5 4 2 5 5 6 7 7 7 7 6 6 5 5 5 4 4 5 6 6 7 6 4 5 6 6 4 4 6 4 5 6 8 20 15 1 11 25 27 22 17 20 16 8 14 22 16 9 17 32 28 16 10 5 2 2 4 4 5
7 7 6 7 8 7 7 7 7 7 7 8 7 6 6 4 5 3 -0 1 2 2 1 -0 1 1 1 3 2 5 5 2 6 6 4 6 5 5 5 3 4 6 6 5 4 4 6 6 4 8 7 4 5 4 3 3 4 7 4 3 3 5 20 17 2 10 24 27 22 14 20 18 9 18 19 6 15 30 27 13 2 -2 3 8 7 6 7 9
7 6 5 6 6 5 5 5 5 6 5 6 6 5 5 4 5 3 1 4 2 1 2 0 2 2 2 3 3 5 5 2 4 4 3 5 4 5 6 5 6 7 8 8 6 4 4 5 5 8 8 4 4 2 3 5 6 8 5 4 2 -3 10 17 3 0 13 28 28 16 18 17 12 20 12 5 29 34 7 -5 1 4 8 12 8 10 17 19
6 6 6 6 6 5 6 5 6 6 6 5 4 4 4 2 2 2 2 4 2 0 3 2 2 2 3 4 2 3 4 2 3 4 5 6 7 6 6 6 7 9 10 9 6 3 4 5 5 9 9 5 5 6 8 9 9 10 7 7 8 -3 -1 11 6 -7 -5 16 26 23 24 16 10 16 10 16 34 17 -10 -3 14 15 10 11 15 19 22 23
6 6 5 5 5 5 5 4 4 5 5 4 3 3 3 2 2 3 2 2 3 2 2 3 3 2 3 3 1 3 5 3 4 6 6 6 6 4 4 6 7 9 10 9 8 6 5 6 7 9 9 6 6 6 7 8 7 9 8 10 14 9 7 17 19 4 -5 7 17 24 30 15 8 14 10 20 27 4 -3 13 16 14 15 17 21 24 28 32
6 5 5 5 5 4 5 6 6 6 4 4 4 3 2 2 2 4 3 3 3 3 2 2 3 3 2 2 2 3 4 4 5 6 6 5 4 4 5 7 8 9 10 9 9 7 5 6 8 8 8 6 5 5 5 7 6 5 7 10 11 9 6 10 23 20 8 14 15 17 29 17 6 14 13 16 20 8 10 18 14 17 20 20 26 34 38 35
5 5 6 5 4 3 4 5 6 7 6 4 4 3 1 2 2 3 3 4 3 3 3 2 3 3 2 2 3 3 4 5 6 6 5 4 4 5 5 6 7 8 10 9 9 8 6 6 6 6 7 6 5 5 6 7 5 3 8 10 9 13 9 -2 5 12 10 20 22 17 26 19 3 9 15 16 15 13 17 18 18 22 19 24 36 36 30 23
5 6 6 5 5 4 4 6 7 7 7 6 5 4 3 2 3 3 3 4 3 2 4 3 2 3 2 2 3 4 5 5 5 5 4 4 4 4 5 6 6 7 9 9 8 8 6 5 5 6 7 7 5 5 7 5 4 5 8 8 3 9 18 7 -2 0 -0 6 20 30 31 15 4 10 14 15 14 15 20 20 20 24 24 32 36 25 19 18
6 6 7 7 6 6 6 5 5 4 5 7 6 4 4 2 2 3 3 4 4 3 3 3 2 1 3 4 3 4 6 4 4 4 3 4 4 5 5 5 5 6 8 9 8 7 6 5 6 7 7 8 5 4 4 4 6 7 6 9 7 2 9 11 3 3 0 -11 -2 30 39 14 6 16 13 11 15 15 19 21 21 26 29 32 28 17 14 13
6 6 6 7 6 6 5 4 5 5 5 7 8 6 5 3 2 3 3 4 4 3 2 3 3 1 3 5 3 4 5 3 3 4 3 4 5 5 5 5 5 5 6 9 8 6 6 5 6 7 6 5 5 3 4 5 8 8 5 9 14 12 14 20 17 13 12 -1 -14 7 34 22 9 17 16 11 16 16 15 20 24 29 31 28 19 10 9 10
7 7 7 6 6 6 5 3 3 4 3 4 7 7 6 5 3 3 4 4 4 3 2 3 4 2 3 5 4 4 4 2 3 3 3 4 4 4 5 5 5 4 5 8 8 6 6 4 4 5 4 6 8 4 5 8 7 6 6 7 7 7 10 19 25 19 15 15 -2 -8 19 26 12 16 19 11 17 20 16 20 29 32 29 21 11 7 9 9
7 8 7 6 5 4 3 1 -1 -1 -0 -0 2 4 5 7 6 3 3 4 4 4 3 4 4 2 2 5 4 3 4 2 2 3 3 4 4 4 5 6 6 5 4 6 7 7 6 4 3 4 4 5 5 2 3 7 8 8 7 6 5 3 1 2 11 17 16 18 13 5 18 25 14 15 18 12 18 23 18 24 34 33 22 12 7 7 9 10
7 7 7 6 6 4 2 2 -0 -2 -2 -2 -0 1 2 5 7 5 2 3 4 5 4 4 4 2 2 5 4 2 3 2 1 2 3 3 3 4 5 6 7 6 5 5 6 6 5 4 4 4 4 2 1 3 6 6 9 12 8 5 6 6 5 1 -1 6 13 12 9 13 25 27 18 16 16 16 22 25 23 30 36 30 17 6 6 11 13 15
5 6 6 5 5 4 3 3 2 0 1 1 1 1 1 3 6 7 4 3 4 5 4 3 3 3 2 4 4 2 2 2 1 2 3 4 4 4 5 6 7 7 6 5 5 6 6 5 4 4 2 1 1 2 7 8 7 11 10 6 7 6 6 9 5 4 12 12 1 2 18 25 20 16 14 17 26 28 29 35 35 25 13 6 10 14 15 16
8 7 6 5 4 4 5 6 4 3 3 3 2 2 1 1 4 7 5 3 5 5 4 3 3 4 3 3 4 1 1 2 1 2 4 5 4 4 5 6 7 8 7 6 6 7 7 5 5 6 4 3 6 4 6 10 9 10 11 5 4 8 6 6 8 5 10 18 6 -7 8 24 21 14 12 15 25 29 31 38 37 22 9 9 14 14 13 14
8 8 7 7 6 5 7 7 6 6 7 6 5 5 3 0 3 7 6 4 5 5 3 2 2 4 3 2 3 1 1 2 1 2 5 5 5 4 5 5 7 8 7 7 6 7 8 6 5 8 7 6 9 7 5 9 9 9 12 7 1 7 8 4 8 5 4 19 19 -4 -4 17 22 14 12 15 23 26 29 38 41 25 9 9 15 13 12 14
8 7 7 7 7 6 6 6 8 9 9 9 7 6 5 1 2 7 6 4 5 4 3 2 2 4 4 2 2 2 1 1 2 2 4 5 5 4 5 5 5 7 7 7 7 7 8 7 5 5 6 4 4 4 3 6 8 6 10 11 3 3 6 5 8 8 -1 8 25 14 -2 7 17 13 10 15 21 24 25 32 38 29 13 11 15 12 11 13
7 6 5 5 6 7 7 7 10 10 9 9 8 6 6 3 1 7 8 4 4 4 3 3 2 3 4 2 2 2 1 1 2 2 3 5 5 4 5 5 5 6 7 6 6 7 7 7 5 4 4 4 3 4 3 3 6 6 8 13 7 2 5 6 7 13 4 -5 7 15 7 6 14 14 10 13 19 22 24 28 34 30 15 10 14 13 9 11
7 6 5 7 8 8 8 9 10 10 9 9 8 6 7 4 2 7 7 4 4 4 3 3 3 3 3 3 2 2 2 2 2 2 3 4 5 5 5 5 5 5 7 7 5 6 7 7 5 4 4 5 3 3 2 2 5 6 6 11 11 3 4 8 6 9 10 1 -3 7 11 8 9 12 11 14 19 22 24 28 33 31 20 12 13 14 10 10
8 6 5 7 7 7 8 9 10 10 9 9 9 6 6 5 4 6 7 4 3 3 3 4 4 4 3 3 3 3 2 2 2 2 3 3 4 5 5 5 6 6 7 8 6 5 6 7 6 5 4 4 5 3 2 3 4 5 4 9 14 7 3 9 10 8 11 10 2 2 10 12 13 14 10 10 20 25 26 30 33 33 28 17 12 15 12 8
8 6 5 6 6 7 8 9 10 11 10 10 9 7 6 5 4 6 6 4 3 3 2 3 4 4 3 2 3 3 3 2 2 2 3 3 4 5 6 5 6 7 7 7 6 5 5 7 7 6 4 4 4 3 3 3 2 3 5 9 13 10 4 5 9 8 8 11 9 5 4 7 15 21 13 7 15 23 23 29 35 35 31 22 14 16 14 9
7 6 5 5 5 7 8 8 10 11 10 10 9 8 7 5 4 5 5 4 4 3 3 3 3 3 3 3 3 3 3 2 3 3 3 3 4 4 6 5 5 7 8 7 7 5 5 7 7 6 5 4 4 4 4 2 1 3 7 7 9 12 9 5 6 7 5 6 10 9 4 1 4 15 16 8 12 20 19 24 34 36 32 26 17 15 16 11
8 5 5 5 5 8 9 8 9 10 11 10 9 8 8 6 5 5 4 4 3 3 3 3 3 3 3 3 3 3 4 3 3 3 3 3 4 4 6 6 5 7 8 7 7 5 4 6 7 7 6 4 5 5 2 0 2 5 7 6 8 12 12 6 6 11 10 5 5 7 8 4 0 7 14 8 7 16 18 19 28 33 35 32 21 14 15 14
Height
5793 5796 5798 5801 5804 5806 5808 5810 5812 5814 5816 5818 5819 5820 5821 5821 5821 5822 5823 5823 5823 5823 5824 5824 5824 5824 5823 5823 5823 5822 5822 5822 5821 5821 5820 5820 5820 5819 5818 5817 5816 5814 5813 5811 5810 5808 5806 5804 5802 5800 5798 5796 5794 5792 5789 5787 5784 5782 5779 5777 5774 5771 5769 5766 5764 5761 5758 5755 5753 5750 5747 5744 5741 5739 5736 5733 5730 5727 5725 5722 5720 5718 5716 5714 5712 5710 5708 5707
5794 5796 5799 5802 5804 5806 5808 5810 5812 5814 5816 5817 5819 5819 5820 5821 5821 5822 5823 5823 5823 5823 5824 5824 5824 5824 5824 5823 5823 5823 5822 5822 5822 5821 5822 5821 5820 5819 5818 5816 5815 5814 5812 5810 5808 5806 5804 5802 5800 5798 5796 5794 5792 5789 5787 5784 5782 5779 5777 5774 5772 5769 5766 5763 5760 5758 5755 5752 5749 5746 5743 5740 5737 5734 5731 5728 5725 5722 5719 5716 5714 5712 5709 5707 5705 5703 5701 5700
5794 5797 5800 5802 5804 5806 5808 5811 5813 5814 5816 5817 5818 5819 5820 5821 5822 5823 5823 5823 5823 5824 5824 5824 5824 5824 5824 5824 5823 5823 5823 5823 5822 5822 5822 5821 5820 5818 5817 5815 5814 5812 5811 5809 5807 5805 5803 5801 5799 5796 5794 5792 5790 5787 5785 5782 5780 5777 5775 5772 5769 5766 5763 5760 5757 5754 5751 5748 5745 5742 5739 5736 5732 5729 5726 5723 5720 5717 5713 5710 5708 5706 5703 5700 5698 5696 5695 5694
5795 5798 5800 5802 5805 5807 5809 5811 5813 5814 5816 5817 5818 5819 5820 5821 5822 5823 5823 5823 5824 5824 5825 5825 5825 5825 5824 5824 5824 5824 5824 5823 5823 5823 5822 5820 5819 5817 5816 5814 5813 5811 5809 5807 5805 5803 5801 5799 5797 5795 5793 5790 5788 5785 5783 5780 5778 5775 5772 5770 5767 5764 5760 5757 5754 5751 5748 5745 5742 5738 5735 5732 5728 5725 5722 5718 5715 5712 5708 5705 5702 5700 5697 5694 5692 5690 5689 5688
5796 5798 5800 5802 5805 5808 5809 5812 5813 5814 5816 5817 5818 5819 5820 5822 5822 5823 5823 5824 5824 5825 5825 5825 5825 5825 5825 5825 5825 5824 5824 5823 5823 5822 5821 5819 5818 5816 5814 5813 5811 5810 5808 5806 5804 5802 5800 5798 5796 5793 5791 5788 5786 5784 5781 5778 5776 5773 5770 5767 5764 5761 5757 5754 5751 5748 5744 5741 5738 5734 5731 5727 5724 5720 5717 5713 5710 5707 5703 5699 5696 5694 5691 5688 5686 5684 5683 5681
5797 5799 5801 5803 5806 5808 5810 5812 5813 5814 5816 5818 5819 5820 5821 5822 5822 5823 5824 5824 5825 5825 5826 5826 5826 5826 5825 5825 5825 5824 5824 5823 5822 5821 5820 5818 5817 5815 5814 5812 5810 5808 5807 5805 5803 5801 5799 5797 5794 5792 5790 5787 5785 5782 5779 5776 5773 5770 5767 5764 5761 5758 5754 5751 5748 5744 5741 5737 5734 5730 5726 5722 5719 5715 5712 5708 5705 5701 5697 5693 5690 5687 5684 5682 5680 5678 5676 5674
5798 5801 5802 5804 5806 5808 5810 5812 5813 5815 5817 5818 5819 5820 5821 5822 5822 5823 5824 5825 5825 5826 5826 5826 5826 5826 5826 5826 5825 5824 5824 5823 5822 5820 5819 5817 5816 5815 5813 5811 5810 5808 5806 5804 5802 5800 5798 5795 5793 5791 5788 5786 5783 5780 5777 5774 5771 5768 5764 5761 5757 5754 5751 5747 5744 5740 5737 5733 5729 5725 5721 5717 5713 5709 5706 5703 5699 5695 5690 5686 5683 5680 5678 5676 5674 5671 5669 5666
5800 5802 5803 5805 5807 5809 5810 5812 5814 5816 5817 5819 5820 5820 5821 5822 5823 5823 5824 5825 5826 5826 5827 5827 5827 5826 5826 5826 5825 5824 5823 5822 5821 5820 5818 5817 5815 5814 5812 5811 5809 5807 5805 5803 5801 5799 5797 5794 5792 5789 5786 5784 5781 5777 5774 5771 5768 5765 5761 5757 5754 5750 5747 5743 5740 5736 5732 5728 5725 5720 5716 5711 5708 5703 5700 5696 5692 5688 5683 5679 5676 5673 5671 5669 5666 5664 5661 5658
5800 5802 5804 5806 5807 5809 5811 5813 5815 5816 5818 5819 5820 5820 5821 5822 5823 5824 5825 5826 5826 5827 5827 5827 5827 5827 5826 5826 5825 5824 5823 5822 5821 5819 5818 5816 5815 5813 5812 5810 5808 5806 5805 5803 5800 5798 5795 5793 5790 5788 5785 5782 5779 5775 5772 5768 5765 5761 5758 5754 5750 5746 5742 5739 5735 5731 5727 5723 5719 5715 5710 5705 5701 5697 5693 5690 5685 5680 5676 5672 5669 5666 5664 5661 5658 5655 5653 5650
5801 5803 5804 5806 5808 5810 5812 5814 5815 5817 5818 5819 5820 5820 5821 5823 5823 5824 5825 5826 5827 5827 5827 5827 5827 5827 5826 5825 5825 5824 5823 5822 5820 5819 5817 5816 5814 5813 5811 5809 5808 5806 5804 5801 5799 5797 5794 5792 5789 5786 5783 5780 5776 5773 5769 5766 5762 5759 5755 5751 5747 5743 5738 5734 5730 5725 5722 5718 5714 5710 5704 5699 5695 5690 5686 5682 5678 5673 5669 5665 5662 5659 5656 5652 5649 5647 5644 5641
5801 5803 5805 5807 5809 5811 5813 5814 5816 5817 5818 5819 5820 5821 5822 5823 5824 5825 5826 5827 5827 5828 5827 5828 5827 5827 5826 5826 5825 5825 5823 5821 5820 5818 5817 5816 5814 5812 5811 5809 5807 5805 5802 5800 5798 5795 5793 5790 5787 5784 5780 5777 5774 5770 5767 5764 5760 5756 5752 5748 5744 5739 5735 5730 5725 5720 5716 5711 5707 5703 5699 5692 5687 5683 5678 5674 5670 5665 5661 5658 5654 5650 5647 5644 5641 5638 5635 5632
5802 5804 5806 5807 5809 5811 5813 5815 5816 5817 5818 5819 5821 5822 5823 5824 5825 5826 5827 5828 5828 5828 5828 5828 5827 5827 5826 5826 5825 5824 5822 5821 5819 5818 5817 5815 5814 5812 5810 5808 5806 5804 5801 5799 5796 5794 5791 5788 5785 5781 5778 5775 5771 5768 5765 5762 5758 5754 5750 5745 5741 5736 5731 5726 5720 5715 5710 5706 5700 5696 5692 5686 5680 5676 5672 5667 5663 5658 5653 5649 5645 5641 5638 5635 5631 5628 5625 5622
5803 5804 5806 5808 5810 5812 5814 5815 5816 5817 5819 5820 5822 5823 5824 5825 5826 5827 5828 5828 5828 5828 5828 5828 5828 5827 5827 5826 5825 5823 5822 5821 5819 5818 5816 5815 5813 5811 5809 5807 5805 5803 5800 5798 5795 5792 5789 5786 5783 5780 5777 5774 5770 5767 5763 5759 5755 5751 5747 5743 5739 5734 5728 5722 5716 5711 5705 5700 5695 5689 5685 5680 5673 5669 5664 5659 5655 5649 5645 5641 5636 5632 5628 5625 5621 5618 5615 5612
5803 5805 5807 5809 5811 5812 5814 5815 5817 5818 5820 5821 5823 5824 5825 5826 5827 5828 5828 5829 5829 5829 5828 5828 5828 5828 5827 5825 5824 5823 5822 5821 5819 5818 5816 5814 5813 5811 5809 5806 5804 5802 5799 5797 5794 5791 5788 5785 5782 5779 5776 5772 5768 5764 5760 5756 5752 5748 5744 5740 5735 5732 5727 5720 5713 5709 5703 5697 5691 5684 5679 5674 5666 5662 5656 5651 5645 5639 5635 5631 5627 5623 5619 5615 5612 5609 5606 5603
5804 5806 5808 5809 5811 5813 5814 5816 5817 5819 5821 5822 5824 5825 5826 5827 5828 5828 5829 5829 5829 5829 5829 5829 5828 5827 5826 5825 5824 5823 5822 5820 5819 5817 5815 5814 5812 5810 5808 5805 5803 5800 5798 5795 5792 5789 5786 5783 5781 5777 5774 5770 5766 5762 5757 5753 5749 5744 5740 5737 5733 5729 5726 5720 5712 5707 5701 5694 5687 5680 5674 5668 5661 5655 5648 5642 5636 5630 5626 5622 5617 5613 5609 5606 5603 5600 5597 5594
5805 5807 5808 5810 5812 5813 5815 5817 5818 5820 5822 5823 5825 5826 5827 5828 5828 5829 5829 5829 5830 5830 5829 5829 5828 5827 5826 5825 5825 5823 5821 5819 5818 5817 5815 5813 5811 5809 5807 5804 5802 5799 5796 5794 5791 5788 5786 5782 5779 5775 5772 5768 5764 5759 5755 5751 5747 5743 5739 5735 5731 5726 5722 5718 5711 5704 5697 5691 5683 5674 5667 5662 5656 5649 5641 5634 5628 5622 5618 5614 5609 5605 5601 5597 5594 5591 5588 5585
5805 5807 5809 5811 5813 5814 5816 5817 5819 5821 5823 5824 5826 5827 5827 5828 5829 5829 5829 5830 5830 5830 5829 5828 5828 5827 5826 5825 5824 5822 5820 5819 5818 5817 5815 5812 5810 5808 5805 5803 5800 5798 5795 5793 5790 5787 5783 5780 5776 5773 5769 5765 5761 5758 5754 5751 5747 5743 5738 5732 5727 5721 5715 5710 5706 5699 5691 5684 5677 5668 5660 5654 5649 5642 5634 5626 5620 5614 5610 5605 5601 5597 5593 5589 5586 5583 5580 5576
5806 5808 5810 5812 5813 5815 5817 5818 5820 5822 5824 5825 5826 5827 5828 5828 5829 5830 5830 5830 5830 5830 5829 5829 5828 5827 5826 5824 5823 5821 5820 5819 5817 5816 5814 5811 5809 5807 5804 5802 5799 5797 5795 5792 5788 5785 5782 5779 5775 5771 5767 5764 5761 5758 5753 5747 5742 5737 5732 5727 5721 5715 5708 5701 5696 5692 5684 5677 5669 5661 5655 5649 5642 5635 5626 5619 5612 5606 5601 5596 5592 5588 5584 5580 5577 5574 5571 5567
5807 5809 5811 5812 5814 5816 5818 5820 5822 5823 5825 5826 5827 5828 5828 5829 5830 5830 5830 5831 5830 5829 5829 5828 5827 5826 5825 5824 5823 5822 5820 5819 5817 5815 5812 5810 5808 5806 5804 5801 5799 5796 5793 5790 5788 5785 5782 5779 5775 5771 5768 5764 5760 5755 5749 5743 5737 5731 5726 5721 5715 5709 5703 5696 5689 5683 5677 5671 5663 5653 5648 5643 5635 5627 5619 5612 5605 5599 5593 5588 5583 5579 5575 5572 5568 5565 5562 5558
5808 5810 5811 5813 5815 5817 5819 5821 5823 5824 5826 5827 5827 5828 5829 5829 5830 5830 5831 5831 5829 5829 5829 5828 5828 5827 5825 5824 5823 5821 5819 5818 5816 5813 5811 5810 5808 5805 5803 5800 5798 5795 5793 5791 5789 5785 5782 5777 5773 5769 5765 5760 5755 5750 5745 5739 5733 5728 5723 5718 5711 5704 5698 5691 5685 5678 5670 5663 5657 5647 5639 5635 5627 5619 5612 5605 5598 5591 5585 5580 5575 5571 5567 5563 5559 5556 5552 5549
5809 5810 5812 5814 5816 5818 5820 5822 5823 5825 5826 5827 5828 5828 5829 5830 5830 5831 5831 5830 5829 5830 5829 5829 5828 5827 5825 5824 5823 5821 5820 5818 5815 5813 5811 5809 5807 5805 5803 5800 5798 5796 5794 5791 5787 5783 5779 5775 5771 5766 5761 5756 5752 5747 5742 5737 5730 5724 5719 5713 5708 5701 5694 5686 5678 5671 5664 5656 5649 5640 5633 5627 5620 5611 5604 5597 5590 5583 5578 5573 5568 5563 5559 5555 5551 5547 5544 5541
5810 5811 5813 5815 5817 5819 5821 5823 5824 5825 5826 5827 5828 5829 5830 5830 5831 5831 5830 5830 5830 5830 5830 5829 5828 5826 5825 5823 5822 5821 5819 5816 5814 5812 5811 5809 5807 5805 5803 5800 5798 5795 5792 5789 5785 5781 5778 5773 5768 5763 5758 5753 5748 5743 5739 5733 5726 5719 5714 5709 5704 5697 5690 5684 5675 5665 5655 5647 5640 5632 5625 5620 5613 5604 5597 5590 5582 5576 5571 5565 5560 5555 5551 5547 5543 5539 5536 5533
5811 5812 5815 5816 5818 5821 5822 5824 5825 5826 5827 5828 5828 5829 5830 5831 5831 5831 5830 5830 5831 5830 5830 5829 5827 5826 5824 5823 5821 5820 5818 5816 5815 5813 5811 5809 5807 5805 5803 5800 5797 5793 5790 5787 5784 5780 5775 5771 5766 5760 5755 5750 5745 5740 5735 5729 5722 5715 5710 5705 5699 5692 5682 5674 5668 5660 5651 5640 5631 5624 5618 5613 5606 5598 5590 5582 5575 5570 5564 5559 5553 5549 5544 5540 5536 5532 5528 5525
5812 5814 5816 5818 5820 5822 5823 5824 5826 5827 5828 5828 5829 5830 5831 5831 5831 5831 5831 5831 5831 5830 5829 5828 5827 5825 5824 5823 5822 5820 5819 5817 5815 5813 5812 5809 5807 5805 5802 5798 5795 5792 5788 5785 5781 5777 5773 5768 5763 5757 5752 5747 5741 5736 5731 5726 5721 5714 5707 5700 5693 5686 5677 5666 5658 5651 5646 5638 5627 5617 5611 5607 5601 5592 5584 5576 5569 5564 5558 5553 5548 5542 5537 5533 5528 5524 5521 5517
5813 5815 5817 5819 5821 5823 5824 5825 5826 5827 5828 5829 5830 5830 5831 5831 5831 5831 5831 5831 5831 5830 5829 5828 5827 5826 5824 5823 5822 5821 5819 5817 5815 5814 5812 5809 5807 5804 5800 5797 5793 5790 5786 5783 5779 5775 5770 5765 5760 5754 5749 5743 5738 5733 5727 5722 5717 5711 5704 5697 5688 5680 5673 5663 5652 5643 5636 5630 5620 5608 5599 5595 5592 5585 5576 5569 5564 5558 5552 5547 5542 5536 5531 5527 5522 5518 5514 5510
5815 5817 5819 5821 5822 5823 5824 5825 5827 5828 5828 5829 5830 5831 5831 5831 5832 5832 5831 5831 5831 5830 5829 5828 5827 5826 5825 5824 5822 5821 5819 5817 5816 5814 5811 5808 5805 5802 5799 5795 5791 5787 5784 5780 5776 5771 5767 5762 5757 5752 5746 5740 5735 5729 5723 5718 5712 5706 5698 5691 5683 5676 5668 5660 5649 5637 5628 5621 5611 5601 5592 5585 5583 5578 5569 5562 5556 5550 5545 5539 5534 5529 5525 5521 5517 5512 5508 5503
5816 5819 5821 5822 5823 5824 5825 5826 5827 5828 5829 5830 5831 5831 5832 5832 5832 5832 5832 5831 5830 5830 5829 5828 5827 5826 5825 5823 5822 5821 5819 5817 5815 5812 5810 5807 5804 5801 5797 5794 5789 5785 5781 5778 5774 5769 5765 5760 5754 5749 5744 5738 5732 5726 5720 5714 5707 5699 5693 5687 5680 5672 5664 5656 5647 5636 5628 5621 5610 5600 5589 5580 5576 5570 5562 5555 5549 5542 5537 5532 5527 5523 5519 5515 5510 5506 5500 5495
5818 5820 5822 5823 5824 5825 5826 5827 5828 5829 5830 5831 5831 5832 5832 5832 5832 5832 5832 5832 5831 5830 5829 5828 5827 5826 5825 5823 5822 5820 5818 5817 5814 5812 5809 5806 5803 5800 5796 5792 5788 5783 5778 5774 5771 5767 5762 5757 5752 5746 5741 5735 5729 5722 5716 5709 5702 5695 5689 5684 5677 5669 5661 5655 5648 5638 5628 5621 5611 5599 5587 5575 5569 5564 5556 5549 5543 5535 5529 5524 5520 5516 5512 5508 5503 5498 5493 5487
5820 5822 5823 5824 5825 5826 5827 5828 5829 5829 5830 5831 5832 5832 5832 5833 5832 5832 5832 5832 5831 5830 5830 5829 5827 5826 5825 5824 5822 5820 5818 5816 5814 5811 5808 5805 5802 5798 5795 5791 5787 5782 5776 5771 5767 5764 5759 5754 5749 5743 5737 5731 5725 5718 5711 5705 5699 5693 5687 5682 5676 5669 5661 5654 5647 5637 5626 5617 5604 5592 5581 5568 5560 5557 5550 5543 5537 5530 5523 5518 5514 5510 5505 5500 5495 5490 5484 5478
5822 5823 5824 5825 5826 5827 5828 5829 5829 5830 5831 5832 5832 5833 5833 5833 5833 5833 5832 5832 5831 5830 5829 5828 5827 5826 5825 5823 5821 5819 5817 5815 5813 5810 5807 5803 5800 5796 5792 5790 5786 5781 5775 5769 5764 5761 5757 5752 5747 5741 5734 5728 5721 5714 5707 5700 5695 5689 5682 5677 5674 5668 5660 5651 5643 5631 5617 5605 5593 5581 5573 5563 5554 5549 5543 5536 5530 5524 5518 5513 5508 5504 5499 5494 5488 5482 5475 5468
5823 5824 5825 5826 5827 5828 5829 5830 5830 5831 5832 5832 5833 5833 5833 5833 5833 5833 5832 5832 5831 5830 5829 5828 5827 5826 5824 5823 5821 5819 5817 5814 5812 5809 5806 5803 5800 5796 5793 5791 5787 5783 5778 5771 5765 5760 5756 5750 5744 5739 5733 5726 5720 5713 5705 5697 5691 5685 5677 5669 5665 5661 5653 5641 5632 5620 5604 5591 5583 5574 5568 5561 5551 5542 5536 5531 5525 5518 5513 5508 5503 5498 5492 5486 5480 5472 5465 5457
5824 5825 5826 5827 5828 5829 5830 5831 5831 5832 5833 5833 5834 5834 5834 5834 5833 5833 5833 5832 5831 5830 5829 5828 5827 5826 5824 5823 5821 5819 5817 5814 5812 5809 5806 5803 5800 5796 5793 5789 5784 5781 5776 5771 5764 5758 5753 5749 5743 5737 5730 5724 5718 5713 5706 5698 5689 5681 5672 5660 5648 5640 5633 5623 5613 5605 5595 5587 5580 5572 5563 5555 5546 5538 5533 5527 5519 5513 5508 5502 5496 5489 5482 5476 5469 5461 5454 5446
5825 5826 5827 5828 5829 5830 5831 5832 5832 5833 5834 5834 5834 5834 5834 5834 5834 5833 5833 5832 5831 5830 5829 5828 5827 5826 5824 5823 5821 5819 5816 5813 5811 5808 5805 5801 5797 5794 5789 5785 5780 5776 5772 5767 5762 5756 5751 5747 5741 5734 5728 5720 5713 5705 5698 5690 5680 5669 5659 5648 5636 5624 5615 5606 5596 5590 5586 5582 5578 5569 5558 5548 5541 5535 5529 5521 5514 5508 5501 5493 5486 5479 5473 5466 5458 5451 5443 5437
5826 5827 5828 5829 5830 5831 5832 5833 5833 5834 5834 5835 5835 5835 5835 5835 5834 5834 5833 5832 5831 5830 5829 5828 5827 5826 5824 5823 5820 5818 5816 5813 5810 5806 5803 5799 5796 5792 5788 5783 5779 5774 5770 5765 5760 5753 5747 5742 5737 5730 5723 5715 5706 5698 5689 5680 5672 5664 5655 5647 5638 5628 5615 5601 5590 5582 5577 5576 5573 5565 5554 5544 5537 5530 5522 5515 5509 5501 5492 5484 5478 5472 5465 5457 5450 5443 5436 5428
5827 5828 5829 5830 5831 5832 5833 5834 5834 5835 5835 5835 5836 5835 5835 5835 5834 5834 5833 5832 5831 5830 5829 5828 5827 5826 5824 5822 5820 5817 5815 5811 5808 5805 5801 5798 5795 5791 5786 5782 5777 5772 5768 5763 5758 5752 5743 5736 5731 5725 5718 5711 5703 5695 5688 5680 5672 5664 5656 5648 5639 5630 5620 5610 5602 5592 5582 5574 5568 5561 5553 5543 5534 5526 5519 5511 5503 5494 5485 5477 5471 5465 5458 5451 5443 5436 5429 5422
5828 5829 5830 5831 5832 5833 5834 5835 5835 5836 5836 5836 5836 5836 5835 5835 5835 5834 5833 5832 5831 5830 5829 5828 5827 5825 5823 5821 5819 5816 5813 5810 5807 5804 5800 5797 5793 5789 5785 5780 5775 5770 5765 5760 5755 5750 5743 5735 5728 5722 5716 5709 5701 5692 5685 5678 5669 5661 5654 5645 5635 5625 5618 5612 5607 5600 5588 5574 5563 5556 5549 5539 5530 5522 5514 5505 5496 5489 5481 5474 5466 5458 5451 5443 5435 5428 5423 5417
5830 5831 5831 5832 5833 5834 5835 5835 5836 5836 5837 5837 5836 5836 5836 5835 5835 5834 5833 5832 5832 5831 5830 5828 5827 5825 5823 5820 5818 5815 5812 5809 5806 5802 5799 5796 5792 5788 5783 5779 5773 5768 5762 5758 5753 5748 5742 5735 5727 5721 5714 5707 5699 5691 5682 5674 5667 5659 5651 5642 5633 5627 5621 5612 5601 5591 5581 5570 5561 5554 5544 5533 5524 5516 5507 5498 5490 5483 5477 5469 5461 5452 5443 5435 5427 5422 5417 5413
5831 5832 5833 5833 5834 5835 5836 5836 5837 5837 5837 5837 5837 5836 5836 5835 5835 5834 5833 5833 5832 5831 5829 5828 5826 5825 5822 5820 5817 5815 5812 5808 5805 5801 5798 5794 5790 5786 5782 5777 5772 5766 5761 5756 5751 5746 5741 5735 5726 5719 5712 5705 5697 5689 5681 5676 5668 5659 5648 5639 5631 5622 5614 5605 5594 5582 5572 5562 5555 5552 5546 5534 5522 5511 5501 5493 5485 5478 5471 5463 5454 5445 5436 5428 5422 5417 5413 5408
5832 5833 5834 5834 5835 5836 5836 5837 5837 5837 5837 5837 5837 5836 5836 5835 5835 5834 5833 5833 5832 5831 5829 5828 5826 5824 5822 5820 5817 5814 5811 5808 5804 5800 5797 5793 5789 5785 5781 5776 5771 5766 5760 5754 5749 5744 5739 5733 5726 5717 5710 5704 5697 5690 5682 5674 5665 5656 5648 5641 5633 5622 5611 5602 5594 5582 5570 5559 5548 5543 5541 5531 5517 5506 5497 5489 5483 5474 5465 5456 5448 5440 5431 5424 5418 5413 5408 5403
5833 5834 5835 5835 5836 5836 5837 5838 5838 5838 5837 5837 5837 5837 5836 5835 5835 5834 5834 5833 5832 5830 5829 5827 5826 5824 5821 5819 5816 5813 5810 5806 5803 5799 5796 5792 5788 5784 5780 5775 5770 5765 5759 5753 5747 5742 5737 5732 5725 5718 5710 5703 5696 5688 5678 5668 5660 5655 5649 5642 5635 5628 5620 5610 5600 5586 5571 5559 5546 5537 5534 5528 5516 5505 5497 5489 5481 5472 5461 5452 5444 5437 5430 5423 5416 5410 5405 5400
5834 5835 5836 5836 5836 5837 5837 5838 5838 5838 5838 5837 5837 5837 5836 5836 5835 5834 5834 5833 5831 5830 5829 5827 5825 5823 5821 5818 5815 5812 5809 5805 5802 5798 5795 5791 5787 5782 5778 5774 5769 5764 5759 5753 5746 5740 5735 5730 5724 5717 5709 5701 5692 5683 5676 5670 5664 5656 5647 5639 5631 5623 5615 5606 5598 5588 5574 5562 5550 5539 5531 5524 5514 5505 5498 5489 5479 5470 5460 5450 5443 5436 5429 5422 5416 5409 5403 5397
5835 5836 5836 5837 5837 5837 5838 5838 5838 5838 5838 5837 5837 5837 5836 5836 5835 5834 5833 5832 5831 5830 5828 5827 5825 5822 5820 5817 5814 5811 5808 5805 5801 5797 5794 5790 5786 5781 5777 5773 5768 5763 5758 5752 5746 5739 5733 5728 5723 5717 5710 5702 5695 5688 5680 5673 5666 5657 5648 5639 5629 5619 5610 5599 5588 5582 5575 5566 5556 5545 5535 5527 5518 5508 5499 5488 5478 5469 5460 5449 5441 5435 5428 5421 5415 5408 5401 5395
5836 5837 5837 5837 5837 5838 5838 5838 5838 5838 5838 5838 5837 5837 5836 5835 5835 5834 5833 5832 5831 5829 5828 5826 5824 5822 5819 5816 5813 5810 5807 5804 5800 5797 5793 5789 5785 5780 5776 5771 5766 5761 5756 5751 5745 5739 5733 5727 5722 5717 5713 5707 5700 5692 5685 5675 5665 5657 5648 5636 5625 5615 5605 5596 5587 5580 5574 5565 5553 5542 5534 5529 5521 5510 5499 5488 5479 5469 5459 5448 5439 5432 5427 5420 5414 5407 5400 5394
5837 5837 5837 5837 5837 5838 5838 5838 5837 5837 5837 5837 5837 5837 5836 5835 5834 5833 5832 5831 5830 5829 5827 5826 5823 5821 5818 5815 5812 5809 5806 5803 5799 5796 5792 5788 5783 5779 5775 5770 5765 5760 5755 5750 5744 5738 5731 5724 5719 5714 5709 5704 5697 5689 5682 5673 5662 5651 5641 5632 5623 5613 5604 5597 5591 5583 5576 5567 5555 5541 5532 5527 5518 5507 5497 5487 5478 5469 5459 5449 5438 5430 5424 5419 5412 5405 5399 5393
5837 5838 5838 5838 5838 5837 5837 5837 5837 5837 5837 5837 5837 5836 5836 5835 5834 5833 5832 5831 5830 5828 5827 5825 5823 5820 5817 5814 5811 5808 5805 5802 5798 5794 5790 5787 5782 5778 5773 5768 5763 5758 5753 5748 5743 5737 5730 5722 5715 5707 5699 5691 5684 5677 5670 5663 5656 5647 5639 5631 5623 5614 5606 5598 5590 5583 5575 5568 5558 5544 5532 5525 5517 5505 5494 5483 5475 5467 5458 5449 5439 5430 5422 5415 5409 5403 5397 5391
5838 5838 5838 5838 5838 5837 5837 5837 5837 5837 5837 5837 5836 5836 5835 5834 5833 5832 5831 5830 5829 5828 5826 5824 5822 5819 5816 5813 5810 5807 5804 5801 5797 5793 5789 5785 5781 5777 5772 5767 5762 5757 5752 5747 5741 5736 5729 5722 5713 5705 5698 5689 5681 5674 5668 5661 5654 5647 5640 5632 5623 5615 5608 5599 5590 5582 5573 5566 5561 5550 5534 5521 5511 5500 5488 5479 5470 5462 5452 5444 5437 5430 5422 5415 5408 5402 5396 5389
5838 5838 5838 5838 5838 5837 5837 5837 5837 5837 5836 5836 5836 5835 5834 5834 5833 5832 5831 5830 5828 5827 5825 5823 5821 5818 5815 5812 5810 5807 5803 5800 5796 5793 5788 5784 5780 5775 5771 5766 5761 5756 5750 5745 5740 5734 5728 5722 5714 5706 5699 5692 5684 5677 5670 5662 5655 5649 5641 5631 5622 5614 5608 5601 5593 5583 5573 5565 5558 5550 5535 5519 5508 5498 5487 5475 5465 5455 5446 5438 5430 5425 5420 5414 5407 5402 5397 5391
5838 5838 5838 5838 5837 5837 5837 5837 5836 5836 5836 5835 5835 5834 5834 5833 5832 5831 5830 5829 5828 5826 5824 5822 5820 5817 5814 5812 5809 5806 5803 5799 5796 5792 5788 5783 5779 5774 5770 5765 5760 5755 5749 5744 5739 5733 5727 5721 5715 5707 5700 5692 5684 5678 5671 5664 5657 5650 5641 5632 5625 5618 5611 5603 5594 5584 5575 5564 5553 5545 5534 5520 5510 5502 5490 5475 5462 5451 5443 5435 5428 5423 5418 5413 5408 5403 5397 5391
5838 5838 5838 5838 5837 5837 5837 5836 5836 5836 5835 5835 5834 5833 5833 5832 5831 5831 5829 5828 5827 5825 5823 5821 5819 5816 5814 5811 5808 5805 5802 5799 5795 5791 5787 5783 5778 5773 5768 5764 5759 5754 5748 5743 5737 5732 5726 5720 5715 5708 5701 5693 5686 5679 5671 5665 5658 5650 5642 5636 5630 5621 5611 5601 5592 5583 5574 5564 5553 5544 5536 5527 5516 5504 5490 5478 5467 5457 5448 5441 5434 5427 5420 5414 5409 5403 5397 5391
5838 5838 5838 5838 5837 5837 5836 5836 5835 5835 5834 5834 5833 5833 5832 5831 5831 5830 5828 5827 5826 5824 5822 5820 5817 5815 5813 5810 5807 5804 5801 5798 5794 5790 5786 5782 5777 5773 5768 5763 5758 5753 5747 5742 5736 5730 5725 5719 5714 5708 5701 5695 5687 5680 5672 5665 5658 5651 5644 5638 5630 5622 5613 5604 5595 5585 5575 5564 5553 5544 5539 5532 5520 5506 5493 5483 5473 5463 5454 5446 5437 5428 5420 5415 5409 5403 5397 5391
5838 5838 5838 5837 5837 5837 5836 5836 5835 5834 5834 5833 5832 5832 5831 5831 5830 5829 5828 5826 5824 5823 5821 5819 5816 5814 5812 5809 5806 5803 5800 5796 5793 5789 5785 5781 5776 5771 5767 5762 5757 5752 5747 5741 5735 5729 5723 5718 5712 5707 5701 5694 5687 5680 5673 5665 5657 5650 5644 5638 5630 5622 5611 5601 5592 5582 5572 5563 5555 5546 5536 5525 5515 5507 5498 5486 5474 5464 5454 5445 5435 5426 5419 5414 5408 5402 5396 5391
5838 5837 5837 5837 5837 5836 5836 5835 5835 5834 5833 5832 5832 5831 5830 5829 5829 5828 5826 5825 5823 5821 5819 5817 5815 5813 5811 5808 5805 5802 5798 5795 5791 5788 5784 5780 5775 5771 5766 5761 5756 5751 5745 5740 5734 5728 5722 5717 5711 5706 5700 5694 5687 5680 5673 5666 5659 5652 5644 5635 5627 5619 5610 5602 5593 5583 5573 5564 5555 5543 5530 5519 5511 5504 5494 5482 5472 5462 5452 5440 5431 5425 5418 5412 5405 5400 5395 5390